Find Starlink 32782

NORAD ID: 62821 Int'l Des: 2025-018 Owner: SPXS Country: US Constellation: starlink operational
LEOCIRCULAR

リアルタイム位置

3D地球を読み込み中...

Starlink 32782について

説明を読み込み中...

次回通過

Passes for default location (London). Set your location on the main map for personalized predictions.

高度履歴

Loading altitude history...

軌道要素

1 62821U 25018R 26125.79708854 .00027796 00000-0 94609-3 0 9991
2 62821 53.1591 44.2050 0002371 79.0405 281.0862 15.30233203 71926
Epoch: May 5, 2026 • Age: 9 hours

現在のステータス

高度 482.3 km
速度 7.62 km/s
衛星直下点 -22.23°S, 41.87°W
打ち上げ日 Jan 24, 2025
運用期間 1.2 years
タイプ internet

技術仕様

分類 Payload
質量 730.00 kg
乾燥質量 700.00 kg
総質量 730.00 kg
長さ 0.30 m
直径 4.10 m
スパン 29.00 m
形状 Box + pan
製造者 SPXS
バスタイプ Starlink V2M
フェーズステータス In Orbit
所有者/国 SPXS/US

Most Searched